User: anonymous   Login
Location: Spradlin Observatory
(33.4706°N, 86.3221°W)
Time: 05:46:35
(UTC-06:00)
Language:

COSMOS 2406 - Orbit

View from above orbital plane
View from above orbital plane
View from above satellite
View from above satellite

Ground track
Ground track

The orbit data is extracted from the following two-line orbital elements,

1 28352U 04021A   17057.84759593  .00000196  00000-0  13364-3 0  9993
2 28352  71.0038 355.0850 0016721 272.6868  87.2339 14.11608709655277
Epoch (UTC): 26 February 2017 20:20:32
Eccentricity: 0.0016721
inclination: 71.0038°
perigee height: 842 km
apogee height: 866 km
right ascension of ascending node: 355.0850°
argument of perigee: 272.6868°
revolutions per day: 14.11608709
mean anomaly at epoch: 87.2339°
orbit number at epoch: 65527

The dashed part of the orbit path shows where the satellite is in the earth's shadow,  

DLR